TimeCST,TemperatureF,Dew PointF,Humidity,Sea Level PressureIn,VisibilityMPH,Wind Direction,Wind SpeedMPH,Gust SpeedMPH,PrecipitationIn,Events,Conditions,WindDirDegrees,DateUTC
12:08 AM,53.6,51.8,94,30.20,10.0,South,10.4,-,N/A,,Overcast,170,2013-11-05 06:08:00
12:58 AM,53.8,51.1,91,30.21,10.0,SSE,9.2,-,N/A,,Overcast,160,2013-11-05 06:58:00
1:18 AM,53.6,51.8,94,30.19,10.0,SSE,6.9,-,N/A,,Overcast,150,2013-11-05 07:18:00
1:58 AM,53.6,51.1,91,30.19,10.0,SSE,6.9,-,N/A,,Overcast,150,2013-11-05 07:58:00
2:31 AM,53.6,51.8,94,30.18,10.0,SSE,10.4,-,N/A,,Light Drizzle,160,2013-11-05 08:31:00
2:42 AM,53.6,51.8,94,30.18,10.0,SSE,9.2,-,N/A,,Overcast,160,2013-11-05 08:42:00
2:58 AM,52.9,52.0,97,30.19,10.0,SSE,5.8,-,0.00,,Overcast,150,2013-11-05 08:58:00
3:17 AM,51.8,51.8,100,30.19,10.0,SSE,6.9,-,N/A,,Light Drizzle,150,2013-11-05 09:17:00
3:57 AM,51.8,51.8,100,30.18,10.0,SSE,9.2,-,N/A,,Light Drizzle,150,2013-11-05 09:57:00
3:58 AM,51.8,51.8,100,30.19,10.0,SSE,9.2,-,0.02,,Light Drizzle,150,2013-11-05 09:58:00
4:08 AM,51.8,51.8,100,30.19,10.0,SSE,8.1,-,N/A,,Light Drizzle,150,2013-11-05 10:08:00
4:11 AM,51.8,51.8,100,30.19,10.0,SSE,9.2,-,N/A,,Overcast,150,2013-11-05 10:11:00
4:13 AM,51.8,51.8,100,30.19,10.0,SE,10.4,-,N/A,,Light Drizzle,140,2013-11-05 10:13:00
4:32 AM,51.8,51.8,100,30.19,10.0,SSE,9.2,-,N/A,,Overcast,150,2013-11-05 10:32:00
4:54 AM,51.8,51.8,100,30.19,10.0,SSE,8.1,-,N/A,,Light Drizzle,150,2013-11-05 10:54:00
4:58 AM,51.4,51.4,100,30.20,10.0,SSE,8.1,-,0.01,,Light Drizzle,150,2013-11-05 10:58:00
5:58 AM,51.1,51.1,100,30.21,8.0,SSE,8.1,-,0.05,Rain,Light Rain,150,2013-11-05 11:58:00
6:58 AM,50.9,50.9,100,30.21,6.0,SE,8.1,-,0.04,Rain,Light Rain,140,2013-11-05 12:58:00
7:58 AM,51.3,51.3,100,30.21,8.0,SE,9.2,-,0.04,,Light Drizzle,130,2013-11-05 13:58:00
8:49 AM,51.8,51.8,100,30.19,10.0,SSE,9.2,-,N/A,,Overcast,150,2013-11-05 14:49:00
8:54 AM,51.8,51.8,100,30.19,10.0,SE,9.2,-,N/A,,Overcast,140,2013-11-05 14:54:00
8:58 AM,52.5,52.5,100,30.20,10.0,SE,9.2,-,0.02,,Overcast,140,2013-11-05 14:58:00
9:43 AM,53.6,53.6,100,30.19,10.0,SSE,8.1,-,N/A,,Light Drizzle,150,2013-11-05 15:43:00
9:58 AM,53.6,53.6,100,30.20,9.0,SSE,9.2,-,0.01,Rain,Light Rain,150,2013-11-05 15:58:00
10:03 AM,53.6,53.6,100,30.19,9.0,SE,6.9,-,N/A,Rain,Light Rain,140,2013-11-05 16:03:00
10:06 AM,53.6,53.6,100,30.19,10.0,SE,6.9,-,N/A,,Overcast,140,2013-11-05 16:06:00
10:43 AM,55.4,55.4,100,30.17,10.0,SSE,8.1,18.4,N/A,Rain,Light Rain,150,2013-11-05 16:43:00
10:58 AM,54.9,54.9,100,30.18,10.0,SE,10.4,-,0.00,,Light Drizzle,140,2013-11-05 16:58:00
11:01 AM,55.4,55.4,100,30.17,10.0,SSE,10.4,-,N/A,,Overcast,150,2013-11-05 17:01:00
11:36 AM,55.4,55.4,100,30.15,10.0,SE,9.2,-,N/A,,Mostly Cloudy,140,2013-11-05 17:36:00
11:41 AM,55.4,55.4,100,30.14,10.0,SSE,10.4,-,N/A,,Mostly Cloudy,150,2013-11-05 17:41:00
11:46 AM,57.2,57.2,100,30.14,10.0,SSE,15.0,-,N/A,,Mostly Cloudy,150,2013-11-05 17:46:00
11:58 AM,57.0,56.8,99,30.14,10.0,SSE,12.7,-,0.01,,Mostly Cloudy,150,2013-11-05 17:58:00
12:33 PM,57.2,57.2,100,30.11,10.0,SE,9.2,-,N/A,,Overcast,140,2013-11-05 18:33:00
12:58 PM,59.4,56.7,91,30.09,10.0,SE,11.5,-,N/A,,Mostly Cloudy,140,2013-11-05 18:58:00
1:03 PM,59.0,55.4,88,30.09,10.0,SSE,13.8,-,N/A,,Light Drizzle,150,2013-11-05 19:03:00
1:08 PM,59.0,55.4,88,30.09,10.0,SSE,12.7,18.4,N/A,Rain,Light Rain,150,2013-11-05 19:08:00
1:58 PM,57.4,56.3,96,30.09,3.0,SE,11.5,-,0.03,Rain,Rain,140,2013-11-05 19:58:00
2:15 PM,57.2,57.2,100,30.07,5.0,SSE,8.1,20.7,N/A,,Overcast,150,2013-11-05 20:15:00
2:17 PM,57.2,57.2,100,30.07,4.0,SSE,8.1,20.7,N/A,Rain,Light Rain,150,2013-11-05 20:17:00
2:27 PM,57.2,57.2,100,30.07,5.0,SSE,12.7,-,N/A,Rain,Light Rain,150,2013-11-05 20:27:00
2:44 PM,55.4,55.4,100,30.05,10.0,SE,13.8,-,N/A,,Overcast,140,2013-11-05 20:44:00
2:57 PM,-9999,-9999,N/A,-9999,-9999.0,SE,11.5,-,N/A,,Unknown,130,2013-11-05 20:57:00
2:58 PM,55.8,55.8,100,30.06,10.0,SE,12.7,-,0.04,,Overcast,140,2013-11-05 20:58:00
3:58 PM,56.3,56.3,100,30.05,10.0,SSE,12.7,-,N/A,,Overcast,150,2013-11-05 21:58:00
4:03 PM,57.2,57.2,100,30.04,10.0,SSE,11.5,-,N/A,,Overcast,150,2013-11-05 22:03:00
4:58 PM,56.8,56.7,99,30.05,10.0,SSE,13.8,-,N/A,,Overcast,160,2013-11-05 22:58:00
5:58 PM,56.5,55.9,98,30.05,10.0,SSE,13.8,21.9,N/A,,Overcast,160,2013-11-05 23:58:00
6:58 PM,56.7,54.5,92,30.06,10.0,SSE,12.7,-,N/A,,Overcast,160,2013-11-06 00:58:00
7:18 PM,57.2,53.6,88,30.03,10.0,SSE,12.7,-,N/A,,Overcast,150,2013-11-06 01:18:00
7:58 PM,56.5,53.8,91,30.04,10.0,SSE,13.8,21.9,N/A,,Overcast,160,2013-11-06 01:58:00
8:58 PM,57.2,53.6,88,30.03,10.0,SSE,12.7,21.9,N/A,,Overcast,160,2013-11-06 02:58:00
9:58 PM,57.2,53.6,88,30.03,10.0,SSE,12.7,21.9,N/A,,Overcast,160,2013-11-06 03:58:00
10:23 PM,57.2,57.2,100,30.00,-9999.0,SSE,15.0,-,N/A,,Unknown,150,2013-11-06 04:23:00
10:24 PM,57.2,57.2,100,29.99,-9999.0,SSE,16.1,-,N/A,,Unknown,150,2013-11-06 04:24:00
10:29 PM,57.2,57.2,100,30.00,10.0,SSE,16.1,25.3,N/A,Rain,Light Rain,160,2013-11-06 04:29:00
10:34 PM,57.2,57.2,100,30.00,10.0,SSE,12.7,25.3,N/A,Rain,Light Rain,160,2013-11-06 04:34:00
10:39 PM,57.2,57.2,100,30.00,10.0,South,16.1,21.9,N/A,,Unknown,170,2013-11-06 04:39:00
10:49 PM,57.2,57.2,100,29.99,10.0,SSE,15.0,20.7,N/A,,Overcast,160,2013-11-06 04:49:00
10:51 PM,57.2,57.2,100,29.99,10.0,SSE,13.8,20.7,N/A,,Light Drizzle,160,2013-11-06 04:51:00
10:58 PM,57.0,57.0,100,29.99,10.0,SSE,13.8,23.0,0.01,,Light Drizzle,160,2013-11-06 04:58:00
11:03 PM,57.2,57.2,100,29.98,10.0,SSE,16.1,23.0,N/A,,Overcast,160,2013-11-06 05:03:00
11:33 PM,57.2,57.2,100,29.98,10.0,South,18.4,23.0,N/A,,Overcast,170,2013-11-06 05:33:00
11:56 PM,59.0,59.0,100,29.98,10.0,South,16.1,23.0,N/A,,Light Drizzle,170,2013-11-06 05:56:00
11:58 PM,59.0,59.0,100,29.98,10.0,South,17.3,23.0,0.00,,Light Drizzle,170,2013-11-06 05:58:00